Weather History for Tracy, MN

Change the Weather History Date:

Saturday, January 5, 2013

  Actual Average (KMML) Record (KMML)
Temperature  
Mean Temperature 20 °F -  
Max Temperature 28 °F 18 °F 62 °F (2012)
Min Temperature 12 °F 1 °F -22 °F (1976)
Degree Days  
Heating Degree Days 45    
Moisture  
Dew Point 12 °F    
Average Humidity 76    
Maximum Humidity 91    
Minimum Humidity 62    
Precipitation  
Precipitation 0.00 in - - ()
Sea Level Pressure  
Sea Level Pressure 29.96 in    
Wind  
Wind Speed 12 mph (WNW)    
Max Wind Speed 23 mph    
Max Gust Speed 33 mph    
Visibility 10 miles    
Events Snow    
Averages and records for this station are not official NWS values.
T = Trace of Precipitation, MM = Missing Value Source: NWS Daily Summary

Daily Weather History Graph

Daily Weather History Graph

Search for Another Location

Airport:

Trip Planner

Search our weather history database for the weather conditions in past years. The results will help you decide how hot, cold, wet, or windy it might be!

Date:

Astronomy

Jan. 05, 2013 Rise Set
Actual Time 7:57 AM CST 4:58 PM CST
Civil Twilight 7:25 AM CST 5:31 PM CST
Nautical Twilight 6:48 AM CST 6:07 PM CST
Astronomical Twilight 6:13 AM CST 6:42 PM CST
Moon 12:57 AM CST (1/5) 11:55 AM CST (1/5)
Length of Visible Light 10h 06m
Length of Day
9h 00m
Last Quarter, 44% of the Moon is Illuminated
Jan 5
Last Quarter
Jan 11
New
Jan 18
First Quarter
Jan 26
Full
Feb 3
Last Quarter

Hourly Weather History & Observations

Time (CST) Temp. Windchill Dew Point Humidity Pressure Visibility Wind Dir Wind Speed Gust Speed Precip Events Conditions
12:16 AM 17.2 °F 2.7 °F 9.1 °F 71% 30.02 in 10.0 mi SW 15.0 mph - N/A   Clear
12:36 AM 17.4 °F 2.4 °F 9.5 °F 71% 30.02 in 10.0 mi SW 16.1 mph - N/A   Clear
12:56 AM 18.0 °F 3.1 °F 10.4 °F 72% 30.02 in 10.0 mi SW 16.1 mph - N/A   Clear
1:17 AM 18.9 °F 5.3 °F 11.1 °F 72% 30.01 in 10.0 mi SW 13.8 mph - N/A   Clear
1:36 AM 18.3 °F 8.2 °F 10.8 °F 72% 30.00 in 10.0 mi SW 8.1 mph - N/A   Clear
1:56 AM 18.1 °F 8.9 °F 10.9 °F 73% 29.99 in 10.0 mi WSW 6.9 mph - N/A   Clear
2:17 AM 15.8 °F 3.4 °F 9.7 °F 77% 29.99 in 10.0 mi SW 10.4 mph - N/A   Clear
2:36 AM 16.9 °F 6.4 °F 10.4 °F 76% 29.98 in 10.0 mi SW 8.1 mph - N/A   Clear
2:56 AM 19.4 °F 6.6 °F 10.9 °F 70% 29.96 in 10.0 mi SW 12.7 mph - N/A   Clear
3:16 AM 18.0 °F 6.1 °F 10.4 °F 72% 29.96 in 10.0 mi SSW 10.4 mph - N/A   Clear
3:36 AM 19.0 °F 7.5 °F 10.9 °F 71% 29.95 in 10.0 mi SSW 10.4 mph - N/A   Clear
3:56 AM 16.7 °F 5.3 °F 9.7 °F 74% 29.96 in 10.0 mi WSW 9.2 mph - N/A   Clear
4:16 AM 16.7 °F 7.2 °F 9.5 °F 73% 29.96 in 10.0 mi NW 6.9 mph - N/A   Clear
4:36 AM 15.1 °F - 7.9 °F 73% 29.95 in 10.0 mi Calm Calm - N/A   Clear
4:56 AM 13.8 °F - 8.1 °F 78% 29.94 in 10.0 mi Calm Calm - N/A   Clear
5:16 AM 15.6 °F - 8.8 °F 74% 29.92 in 10.0 mi Calm Calm - N/A   Clear
6:16 AM 14.5 °F 7.1 °F 9.1 °F 79% 29.93 in 10.0 mi SW 4.6 mph - N/A   Clear
6:36 AM 14.2 °F 3.1 °F 9.1 °F 80% 29.94 in 10.0 mi SW 8.1 mph - N/A   Clear
6:57 AM 13.5 °F 2.2 °F 8.6 °F 81% 29.94 in 10.0 mi SW 8.1 mph - N/A   Clear
7:16 AM 12.7 °F 1.4 °F 7.9 °F 81% 29.93 in 10.0 mi WSW 8.1 mph - N/A   Clear
7:36 AM 13.5 °F 1.3 °F 8.6 °F 81% 29.91 in 10.0 mi SW 9.2 mph - N/A   Clear
7:57 AM 14.4 °F 2.4 °F 9.3 °F 80% 29.91 in 10.0 mi SW 9.2 mph - N/A   Clear
8:17 AM 14.7 °F 5.9 °F 9.5 °F 80% 29.92 in 10.0 mi WSW 5.8 mph - N/A   Clear
8:36 AM 14.9 °F 3.1 °F 9.5 °F 79% 29.92 in 10.0 mi WSW 9.2 mph - N/A   Clear
8:56 AM 16.2 °F 3.2 °F 10.4 °F 78% 29.91 in 10.0 mi SW 11.5 mph - N/A   Clear
9:17 AM 18.1 °F 6.3 °F 11.3 °F 75% 29.91 in 10.0 mi WSW 10.4 mph - N/A   Clear
9:56 AM 22.1 °F 12.0 °F 14.0 °F 71% 29.90 in 10.0 mi WSW 9.2 mph - N/A   Clear
10:17 AM 21.9 °F 11.7 °F 14.0 °F 72% 29.91 in 10.0 mi WSW 9.2 mph - N/A   Clear
10:56 AM 23.9 °F 12.9 °F 14.7 °F 68% 29.91 in 10.0 mi West 11.5 mph 17.3 mph N/A   Clear
11:17 AM 23.9 °F 15.8 °F 14.7 °F 68% 29.91 in 10.0 mi West 6.9 mph 16.1 mph N/A   Clear
11:36 AM 25.2 °F 16.5 °F 15.6 °F 67% 29.89 in 10.0 mi West 8.1 mph - N/A   Clear
11:56 AM 28.4 °F 19.1 °F 17.4 °F 63% 29.88 in 10.0 mi WNW 10.4 mph - N/A   Clear
12:16 PM 28.9 °F 17.7 °F 17.4 °F 62% 29.88 in 10.0 mi WNW 15.0 mph 18.4 mph N/A   Clear
12:36 PM 28.0 °F 17.0 °F 17.2 °F 64% 29.87 in 10.0 mi WNW 13.8 mph 19.6 mph N/A   Clear
12:56 PM 27.5 °F 17.4 °F 17.6 °F 66% 29.86 in 10.0 mi WNW 11.5 mph 17.3 mph N/A   Clear
1:16 PM 27.5 °F 17.4 °F 18.3 °F 68% 29.86 in 10.0 mi WNW 11.5 mph - N/A   Clear
1:36 PM 26.6 °F 14.3 °F 18.0 °F 70% 29.87 in 10.0 mi WNW 16.1 mph 19.6 mph N/A   Clear
1:57 PM 26.1 °F 13.1 °F 18.1 °F 72% 29.87 in 10.0 mi NW 17.3 mph 20.7 mph N/A   Clear
2:16 PM 25.7 °F 12.7 °F 18.0 °F 73% 29.87 in 10.0 mi NW 17.3 mph - N/A   Clear
2:36 PM 25.0 °F 13.6 °F 17.8 °F 74% 29.88 in 10.0 mi NW 12.7 mph - N/A   Clear
2:57 PM 24.6 °F 11.3 °F 17.4 °F 74% 29.89 in 10.0 mi NW 17.3 mph - N/A   Clear
3:17 PM 23.9 °F 11.7 °F 17.2 °F 76% 29.89 in 10.0 mi NW 13.8 mph - N/A   Clear
3:36 PM 23.4 °F 10.1 °F 16.7 °F 76% 29.89 in 10.0 mi NW 16.1 mph - N/A   Clear
3:56 PM 22.6 °F 10.1 °F 16.5 °F 77% 29.90 in 10.0 mi NW 13.8 mph - N/A   Clear
4:17 PM 21.9 °F 9.8 °F 16.3 °F 79% 29.91 in 10.0 mi NW 12.7 mph - N/A   Clear
5:16 PM 18.7 °F 4.0 °F 13.5 °F 80% 29.95 in 10.0 mi NW 16.1 mph - N/A   Mostly Cloudy
5:37 PM 18.1 °F 3.4 °F 13.1 °F 81% 29.96 in 10.0 mi NNW 16.1 mph - N/A   Mostly Cloudy
5:56 PM 18.1 °F 3.9 °F 13.3 °F 81% 29.97 in 10.0 mi NNW 15.0 mph 19.6 mph N/A   Overcast
6:17 PM 17.2 °F 0.4 °F 13.1 °F 84% 29.99 in 10.0 mi NNW 20.7 mph - N/A   Overcast
6:36 PM 14.2 °F -4.5 °F 10.2 °F 84% 30.01 in 7.0 mi NNW 23.0 mph 33.4 mph N/A   Overcast
6:56 PM 12.9 °F -4.9 °F 9.5 °F 86% 30.02 in 3.0 mi NNW 19.6 mph 28.8 mph N/A Snow Light Snow
7:17 PM 13.1 °F -3.7 °F 10.4 °F 89% 30.03 in 5.0 mi NW 17.3 mph 25.3 mph N/A   Overcast
7:36 PM 14.0 °F -3.9 °F 11.8 °F 91% 30.03 in 5.0 mi NW 20.7 mph 26.5 mph N/A   Overcast
7:56 PM 14.5 °F -2.7 °F 12.2 °F 90% 30.04 in 4.0 mi NW 19.6 mph 26.5 mph N/A Snow Light Snow
8:17 PM 14.7 °F -2.0 °F 11.8 °F 88% 30.03 in 5.0 mi NNW 18.4 mph 29.9 mph N/A   Overcast
8:36 PM 14.7 °F -2.5 °F 12.2 °F 90% 30.04 in 7.0 mi NNW 19.6 mph 24.2 mph N/A   Overcast
8:56 PM 14.7 °F -2.0 °F 11.7 °F 88% 30.06 in 10.0 mi NW 18.4 mph - N/A   Overcast
9:17 PM 14.0 °F -2.5 °F 9.9 °F 84% 30.06 in 10.0 mi NW 17.3 mph 23.0 mph N/A   Scattered Clouds
9:36 PM 14.0 °F -3.0 °F 6.6 °F 72% 30.07 in 10.0 mi NNW 18.4 mph 24.2 mph N/A   Clear
9:56 PM 13.5 °F -5.0 °F 6.8 °F 75% 30.08 in 10.0 mi NW 21.9 mph 26.5 mph N/A   Clear
10:17 PM 14.0 °F -3.4 °F 6.3 °F 71% 30.09 in 10.0 mi NNW 19.6 mph 27.6 mph N/A   Scattered Clouds
10:37 PM 14.0 °F -2.5 °F 7.5 °F 75% 30.09 in 10.0 mi NW 17.3 mph - N/A   Scattered Clouds
10:56 PM 13.8 °F -2.7 °F 7.7 °F 77% 30.09 in 10.0 mi NW 17.3 mph - N/A   Clear
11:17 PM 13.5 °F -2.1 °F 6.8 °F 75% 30.10 in 10.0 mi NW 15.0 mph - N/A   Clear
11:36 PM 13.3 °F -3.4 °F 7.0 °F 76% 30.10 in 10.0 mi NW 17.3 mph - N/A   Clear
11:56 PM 13.1 °F -3.7 °F 7.3 °F 78% 30.10 in 10.0 mi NW 17.3 mph - N/A   Clear